When you browse on this site, cookies collect data to enhance your experience and personalize the content and advertising you see.
Visit our Privacy Policy to learn more. By continuing to use the site, you agree to this use of cookies and data.
  • In Belgium
  • List of Countries
  • For 7 days
  • Water Temperature
  • Satellite Maps
  • Weather Map
  • Weather Widgets
  • user-avatar
    Login

    Hourly Weather Herentals

    Today, 17 November, Saturday

    Time Temperature Precipitation Wind Pressure Humidity
    00:00 +3°C° 0 mm 3 mps 769 mmHg 76%
    01:00 +3°C° 0 mm 3 mps 769 mmHg 77%
    02:00 +3°C° 0 mm 3 mps 769 mmHg 78%
    03:00 +3°C° 0 mm 3 mps 769 mmHg 79%
    04:00 +3°C° 0 mm 3 mps 770 mmHg 80%
    05:00 +2°C° 0 mm 3 mps 770 mmHg 81%
    06:00 +2°C° 0 mm 3 mps 770 mmHg 82%
    07:00 +3°C° 0 mm 4 mps 770 mmHg 79%
    08:00 +4°C° 0 mm 4 mps 770 mmHg 75%
    09:00 +3°C° 0 mm 5 mps 770 mmHg 71%
    10:00 +6°C° 0 mm 5 mps 770 mmHg 66%
    11:00 +7°C° 0 mm 5 mps 770 mmHg 60%
    12:00 +8°C° 0 mm 6 mps 770 mmHg 55%
    13:00 +8°C° 0 mm 5 mps 770 mmHg 56%
    14:00 +8°C° 0 mm 5 mps 770 mmHg 56%
    15:00 +7°C° 0 mm 5 mps 769 mmHg 57%
    16:00 +7°C° 0 mm 5 mps 770 mmHg 58%
    17:00 +6°C° 0 mm 5 mps 770 mmHg 60%
    18:00 +5°C° 0 mm 5 mps 770 mmHg 61%
    19:00 +5°C° 0 mm 5 mps 770 mmHg 60%
    20:00 +3°C° 0 mm 5 mps 770 mmHg 60%
    21:00 +3°C° 0 mm 5 mps 770 mmHg 60%
    22:00 +3°C° 0 mm 4 mps 770 mmHg 60%
    23:00 +3°C° 0 mm 4 mps 770 mmHg 61%

    Tomorrow, 18 November, Sunday

    Time Temperature Precipitation Wind Pressure Humidity
    00:00 +3°C° 0 mm 4 mps 770 mmHg 61%
    01:00 +1°C° 0 mm 4 mps 770 mmHg 62%
    02:00 +1°C° 0 mm 4 mps 770 mmHg 62%
    03:00 +1°C° 0 mm 4 mps 770 mmHg 63%
    04:00 +1°C° 0 mm 4 mps 770 mmHg 61%
    05:00 0°C° 0 mm 4 mps 770 mmHg 59%
    06:00 0°C° 0 mm 4 mps 770 mmHg 58%
    07:00 +1°C° 0 mm 5 mps 770 mmHg 55%
    08:00 +1°C° 0 mm 5 mps 770 mmHg 52%
    09:00 +2°C° 0 mm 5 mps 770 mmHg 49%
    10:00 +3°C° 0 mm 5 mps 770 mmHg 47%
    11:00 +5°C° 0 mm 5 mps 769 mmHg 45%
    12:00 +5°C° 0 mm 6 mps 769 mmHg 43%
    13:00 +6°C° 0 mm 5 mps 769 mmHg 44%
    14:00 +6°C° 0 mm 5 mps 769 mmHg 44%
    15:00 +5°C° 0 mm 5 mps 768 mmHg 44%
    16:00 +5°C° 0 mm 5 mps 768 mmHg 44%
    17:00 +3°C° 0 mm 5 mps 768 mmHg 44%
    18:00 +2°C° 0 mm 5 mps 768 mmHg 44%
    19:00 +2°C° 0 mm 5 mps 768 mmHg 47%
    20:00 +1°C° 0 mm 5 mps 768 mmHg 50%
    21:00 +1°C° 0 mm 5 mps 768 mmHg 53%
    22:00 +1°C° 0 mm 5 mps 768 mmHg 61%
    23:00 +1°C° 0 mm 5 mps 768 mmHg 70%

    Day after tomorrow, 19 November, Monday

    Time Temperature Precipitation Wind Pressure Humidity
    00:00 +1°C° 0 mm 5 mps 767 mmHg 79%
    01:00 +1°C° 0 mm 5 mps 767 mmHg 82%
    02:00 +1°C° 0 mm 5 mps 767 mmHg 86%
    03:00 +1°C° 0 mm 5 mps 766 mmHg 90%
    04:00 +1°C° 0 mm 5 mps 766 mmHg 90%
    05:00 +1°C° 0 mm 5 mps 766 mmHg 90%
    06:00 +2°C° 0 mm 5 mps 765 mmHg 90%
    07:00 +2°C° 0 mm 5 mps 765 mmHg 88%
    08:00 +3°C° 0 mm 6 mps 765 mmHg 85%
    09:00 +3°C° 0 mm 6 mps 765 mmHg 82%
    10:00 +4°C° 0 mm 6 mps 764 mmHg 78%
    11:00 +4°C° 0 mm 7 mps 764 mmHg 74%
    12:00 +5°C° 0 mm 7 mps 763 mmHg 70%
    13:00 +5°C° 0 mm 6 mps 763 mmHg 69%
    14:00 +5°C° 0 mm 6 mps 762 mmHg 69%
    15:00 +5°C° 0 mm 6 mps 762 mmHg 68%
    16:00 +4°C° 0 mm 6 mps 762 mmHg 71%
    17:00 +3°C° 0 mm 6 mps 761 mmHg 74%
    18:00 +3°C° 0 mm 5 mps 761 mmHg 77%
    19:00 +2°C° 0 mm 5 mps 761 mmHg 77%
    20:00 +2°C° 0 mm 5 mps 761 mmHg 78%
    21:00 +2°C° 0 mm 5 mps 760 mmHg 79%
    22:00 +1°C° 0 mm 5 mps 760 mmHg 79%
    23:00 +1°C° 0 mm 5 mps 760 mmHg 79%

    20 November, Tuesday

    Time Temperature Precipitation Wind Pressure Humidity
    00:00 +1°C° 0 mm 5 mps 759 mmHg 78%
    01:00 -1°C° 0 mm 6 mps 759 mmHg 78%
    02:00 -1°C° 0 mm 6 mps 758 mmHg 78%
    03:00 -1°C° 0 mm 6 mps 758 mmHg 78%
    04:00 -1°C° 0 mm 6 mps 758 mmHg 76%
    05:00 -1°C° 0 mm 6 mps 757 mmHg 74%
    06:00 0°C° 0 mm 7 mps 757 mmHg 71%
    07:00 0°C° 0 mm 7 mps 757 mmHg 69%
    08:00 0°C° 0 mm 7 mps 757 mmHg 67%
    09:00 +1°C° 0 mm 8 mps 757 mmHg 65%
    10:00 +1°C° 0 mm 8 mps 756 mmHg 65%
    11:00 +2°C° 0 mm 7 mps 756 mmHg 65%
    12:00 +3°C° 0 mm 7 mps 755 mmHg 65%
    13:00 +2°C° 0 mm 7 mps 755 mmHg 65%
    14:00 +2°C° 0 mm 7 mps 754 mmHg 66%
    15:00 +2°C° 0 mm 6 mps 754 mmHg 67%
    16:00 +2°C° 0 mm 6 mps 754 mmHg 69%
    17:00 +1°C° 0 mm 6 mps 754 mmHg 71%
    18:00 +1°C° 0 mm 6 mps 754 mmHg 74%
    19:00 +1°C° 0 mm 5 mps 754 mmHg 76%
    20:00 0°C° 0 mm 5 mps 754 mmHg 78%
    21:00 0°C° 0 mm 5 mps 755 mmHg 80%
    22:00 0°C° 0 mm 4 mps 755 mmHg 81%
    23:00 0°C° 0 mm 4 mps 755 mmHg 82%

    21 November, Wednesday

    Time Temperature Precipitation Wind Pressure Humidity
    00:00 0°C° 0 mm 4 mps 755 mmHg 83%
    01:00 +1°C° 0.1 mm 3 mps 754 mmHg 84%
    02:00 +1°C° 0.1 mm 3 mps 754 mmHg 85%
    03:00 +1°C° 0.1 mm 3 mps 754 mmHg 87%
    04:00 +2°C° 0.3 mm 2 mps 754 mmHg 88%
    05:00 +2°C° 0.3 mm 2 mps 754 mmHg 89%
    06:00 +2°C° 0.3 mm 1 mps 754 mmHg 90%
    07:00 +3°C° 0.3 mm 1 mps 754 mmHg 90%
    08:00 +3°C° 0.3 mm 1 mps 755 mmHg 90%
    09:00 +3°C° 0.3 mm 1 mps 755 mmHg 90%
    10:00 +3°C° 0.2 mm 1 mps 755 mmHg 88%
    11:00 +4°C° 0.2 mm 1 mps 755 mmHg 87%
    12:00 +3°C° 0.2 mm 2 mps 755 mmHg 86%
    13:00 +3°C° 0.1 mm 2 mps 755 mmHg 86%
    14:00 +3°C° 0.1 mm 2 mps 755 mmHg 87%
    15:00 +3°C° 0.1 mm 2 mps 755 mmHg 87%
    16:00 +3°C° 0.1 mm 2 mps 756 mmHg 87%
    17:00 +2°C° 0.1 mm 3 mps 756 mmHg 87%
    18:00 +1°C° 0.1 mm 3 mps 756 mmHg 87%
    19:00 0°C° 0.1 mm 4 mps 757 mmHg 86%
    20:00 0°C° 0.1 mm 4 mps 757 mmHg 84%
    21:00 0°C° 0.1 mm 5 mps 758 mmHg 83%
    22:00 0°C° 0 mm 5 mps 758 mmHg 83%
    23:00 -1°C° 0 mm 5 mps 759 mmHg 83%

    22 November, Thursday

    Time Temperature Precipitation Wind Pressure Humidity
    00:00 -1°C° 0 mm 5 mps 759 mmHg 83%
    01:00 -1°C° 0 mm 4 mps 760 mmHg 84%
    02:00 -2°C° 0 mm 4 mps 760 mmHg 85%
    03:00 -2°C° 0 mm 4 mps 761 mmHg 87%
    04:00 -2°C° 0 mm 4 mps 761 mmHg 87%
    05:00 -2°C° 0 mm 3 mps 762 mmHg 87%
    06:00 -2°C° 0 mm 3 mps 762 mmHg 88%
    07:00 -1°C° 0 mm 3 mps 763 mmHg 85%
    08:00 -1°C° 0 mm 3 mps 763 mmHg 83%
    09:00 0°C° 0 mm 3 mps 764 mmHg 80%
    10:00 +1°C° 0 mm 3 mps 764 mmHg 78%
    11:00 +2°C° 0 mm 3 mps 764 mmHg 75%
    12:00 +3°C° 0 mm 3 mps 764 mmHg 73%
    13:00 +4°C° 0 mm 2 mps 764 mmHg 76%
    14:00 +4°C° 0 mm 2 mps 764 mmHg 79%
    15:00 +3°C° 0 mm 2 mps 764 mmHg 82%
    16:00 +3°C° 0 mm 2 mps 765 mmHg 84%
    17:00 +2°C° 0 mm 2 mps 765 mmHg 86%
    18:00 +1°C° 0 mm 2 mps 765 mmHg 89%
    19:00 +1°C° 0 mm 2 mps 765 mmHg 89%
    20:00 +1°C° 0 mm 2 mps 766 mmHg 89%
    21:00 +1°C° 0 mm 2 mps 766 mmHg 89%
    22:00 +1°C° 0 mm 2 mps 766 mmHg 89%
    23:00 +1°C° 0 mm 2 mps 766 mmHg 89%
    Show more